Total_Precipitation_Accumulation
0.06 0.06 0.02 0.02 0.01 0.00 0.02 0.22 0.81 0.72 0.16 0.35 0.53 0.18 0.89 0.11 0.51 0.29 0.31 0.13 0.27 0.15 0.22 0.27 0.35 0.41 0.34 0.39 0.12 0.12 0.12 0.09 0.25 0.34 0.98 2.02 1.20 1.05 1.01 0.62 0.56 0.74 0.79 1.39 2.93 1.77 2.33 3.64 4.04 6.58 7.52 7.43 8.02 10.90 8.33 7.34 6.41 5.07 4.64 4.76 5.87 4.50 4.23 3.54 3.28 3.45 2.78 3.08 2.89 3.23 2.60 1.38 1.07 1.00 0.95 0.81 0.69 0.84 0.56 0.50 0.51 0.78 0.76 0.72 0.72 0.67 0.71 0.72 0.88 0.87 1.04 1.28 1.02 0.87 0.64 0.58 0.55
0.03 0.02 0.03 0.02 0.05 0.00 0.30 0.22 0.69 0.29 0.25 0.31 0.24 0.44 0.60 0.21 0.08 0.53 0.50 0.37 0.46 0.40 0.47 0.16 0.27 0.13 0.10 0.09 0.05 0.22 0.22 0.43 0.35 0.50 0.89 1.66 1.18 1.08 0.75 0.51 0.61 0.47 0.73 2.09 2.88 2.58 2.62 3.69 4.47 3.80 3.84 4.09 4.51 6.10 6.47 5.94 7.12 6.51 5.19 4.96 5.33 4.19 3.58 3.50 3.30 3.39 2.87 3.08 2.71 2.56 2.39 2.27 1.88 1.47 1.36 1.03 1.05 0.81 0.83 0.84 0.88 0.87 0.75 0.87 0.76 0.80 0.91 0.99 1.00 0.77 1.29 1.37 1.08 0.91 0.81 0.73 0.96
0.00 0.01 0.01 0.01 0.01 0.04 0.09 0.13 0.37 0.21 0.57 0.43 0.60 0.41 0.55 0.66 0.38 0.33 0.36 0.25 0.08 0.15 0.06 0.15 0.07 0.11 0.46 0.21 0.25 0.31 1.02 0.52 0.23 0.54 1.06 0.66 0.72 0.93 0.73 0.62 0.56 0.54 0.82 1.66 1.84 2.17 2.71 4.71 3.01 2.91 2.97 3.65 3.86 3.84 4.41 6.51 5.95 6.21 5.91 5.57 5.56 4.50 5.13 4.63 4.46 4.07 3.05 2.61 2.66 2.75 2.52 2.33 2.18 1.69 1.33 1.44 0.97 1.17 1.12 0.88 0.79 0.90 0.96 0.99 0.88 0.93 1.07 0.84 0.77 1.21 0.98 1.55 1.63 1.12 1.45 0.93 1.06
0.04 0.01 0.02 0.02 0.13 0.02 0.06 0.32 0.17 0.54 0.48 0.54 1.24 0.65 0.60 0.38 0.46 0.25 0.57 0.40 0.24 0.03 0.08 0.02 0.01 0.03 0.04 0.05 0.09 0.04 0.24 0.55 0.35 0.40 0.61 0.77 0.65 0.91 0.69 0.72 0.92 0.78 0.57 0.89 0.69 1.38 1.92 2.97 2.32 2.10 2.24 2.76 3.14 4.20 3.65 3.25 4.75 5.15 4.98 5.23 4.92 5.67 4.81 4.04 4.42 3.77 3.69 3.21 2.95 3.01 2.50 2.20 1.98 1.72 1.60 1.39 1.30 0.93 0.78 0.91 1.06 0.91 0.79 0.93 1.12 1.27 0.92 1.03 1.40 1.33 1.03 0.79 1.45 1.40 1.19 1.45 1.07
0.07 0.12 0.06 0.06 0.02 0.23 0.17 0.44 0.32 0.22 0.46 1.02 1.01 0.80 0.43 0.40 0.57 0.30 0.39 0.18 0.17 0.26 0.14 0.03 0.00 0.02 0.01 0.03 0.05 0.12 0.26 0.29 0.36 0.28 0.60 0.72 0.47 1.37 1.28 1.14 0.97 1.69 2.04 0.74 0.45 0.63 1.11 1.95 2.07 1.65 1.68 2.47 3.39 2.80 2.93 3.79 3.76 4.12 4.67 4.67 4.23 3.52 3.76 3.37 3.20 2.93 2.76 2.59 2.28 1.99 1.70 1.67 1.64 1.43 1.74 1.46 1.12 1.25 1.41 1.09 0.98 0.77 0.99 1.10 1.06 1.28 1.39 1.28 1.35 1.24 0.84 0.69 0.67 1.21 1.52 1.67 1.95
0.07 0.02 0.03 0.02 0.18 0.37 0.06 0.17 0.20 0.30 0.63 0.57 0.76 0.55 0.22 0.37 0.11 0.07 0.12 0.05 0.04 0.03 0.06 0.03 0.05 0.02 0.01 0.03 0.03 0.19 0.23 0.39 0.59 0.32 0.39 0.70 0.80 1.60 1.73 0.94 1.54 0.62 1.11 0.82 0.49 0.41 0.72 0.94 1.20 1.18 1.31 1.80 2.62 2.60 2.56 2.58 3.18 3.67 3.85 3.97 4.86 3.56 4.02 3.55 3.81 3.12 3.03 3.08 3.17 2.64 2.30 2.12 1.98 2.10 1.83 1.59 1.53 1.45 1.33 1.20 1.53 1.55 1.21 1.10 1.18 1.51 1.55 1.36 0.88 0.98 0.66 0.72 0.79 0.71 0.99 1.13 1.35
0.12 0.09 0.11 0.08 0.04 0.09 0.52 0.41 0.65 0.68 0.64 0.06 0.15 0.23 0.63 0.32 0.33 0.23 0.19 0.23 0.19 0.17 0.25 0.16 0.01 0.14 0.38 0.06 0.02 0.29 0.12 0.13 0.35 0.71 0.38 0.99 2.62 2.28 1.63 1.66 0.85 2.29 0.60 0.81 0.78 0.39 0.69 0.82 0.90 1.25 1.32 2.13 2.72 3.04 2.62 2.02 2.65 2.55 3.41 3.21 3.00 3.64 3.69 2.81 2.58 2.89 3.04 2.61 2.47 2.11 2.19 2.37 2.05 2.03 1.87 2.34 2.55 2.66 2.46 1.99 1.84 1.68 1.75 1.45 1.32 1.25 1.12 0.99 0.88 0.69 0.74 0.61 0.72 0.70 0.89 0.95 1.00
0.09 0.24 0.67 0.63 0.72 0.34 0.40 0.44 0.48 0.18 0.54 0.32 0.11 0.21 0.16 0.41 0.41 0.14 0.47 0.55 0.58 0.10 0.25 0.14 0.17 0.01 0.10 0.04 0.09 0.40 0.13 0.14 0.28 0.49 0.85 1.88 1.55 1.30 1.51 1.86 1.09 0.75 1.56 0.90 1.29 1.47 0.40 0.72 0.67 0.95 1.49 2.30 1.81 1.46 2.45 2.48 2.35 2.17 2.96 3.19 2.99 3.07 3.55 2.91 3.52 2.23 2.01 2.18 1.89 2.06 2.12 2.63 2.54 2.21 2.14 2.05 1.66 1.67 1.66 1.75 1.74 1.56 1.21 1.24 1.01 1.23 1.30 1.08 0.85 0.97 0.78 0.66 0.75 0.74 0.71 0.67 0.71
0.25 0.37 0.42 0.33 0.47 0.41 0.27 0.37 0.26 0.18 0.22 0.18 0.17 0.08 0.02 0.12 0.16 0.80 0.80 0.22 0.60 0.34 0.29 0.37 0.58 0.23 0.48 0.04 0.14 0.40 0.22 0.50 0.25 0.58 1.24 0.84 0.86 0.85 0.88 0.96 0.97 1.85 2.05 1.53 1.75 0.86 1.43 0.74 0.73 0.93 2.29 2.47 3.25 2.14 2.17 2.26 1.92 1.83 2.55 2.52 2.64 3.35 3.48 3.00 2.79 2.85 3.65 4.00 4.03 3.76 3.26 3.03 2.77 2.47 2.28 2.03 2.08 1.69 1.67 1.90 1.46 1.35 1.56 1.36 1.28 1.21 1.30 1.02 1.06 0.96 0.86 0.71 0.83 0.82 0.79 0.70 0.82
0.15 0.31 0.29 0.39 0.36 0.30 0.18 0.44 0.08 0.37 0.52 0.33 0.25 0.17 0.13 0.11 0.16 0.11 0.55 1.60 0.89 0.98 0.52 0.39 0.38 0.25 0.15 0.60 0.44 0.42 0.81 0.74 1.03 1.33 1.37 1.98 1.27 0.81 0.97 0.95 0.74 0.87 0.83 1.71 1.49 1.69 1.27 1.17 1.33 1.21 1.91 2.07 1.94 2.43 2.31 1.28 1.48 1.79 1.47 1.34 1.88 2.05 1.72 2.29 2.01 1.97 2.38 2.25 2.23 2.24 2.49 2.53 2.43 2.59 2.35 2.27 2.30 2.19 2.01 2.35 2.14 1.95 2.12 1.90 1.74 1.61 1.50 1.23 1.47 1.06 1.08 1.00 0.97 0.88 0.88 0.79 0.69
0.17 0.37 0.32 0.33 0.20 0.41 0.30 0.62 0.27 0.19 0.15 0.29 0.16 0.02 0.15 0.06 0.12 0.25 0.24 0.60 0.81 0.89 1.16 0.86 0.48 0.51 0.18 0.66 0.48 0.69 0.41 0.96 1.27 1.41 1.13 0.80 0.68 0.79 0.57 1.35 0.94 1.12 1.25 0.77 0.74 0.84 1.39 1.20 1.51 1.92 1.39 2.22 2.13 1.59 1.73 1.86 2.01 2.32 2.09 2.04 2.12 2.07 2.12 2.10 2.18 1.88 1.82 1.76 1.94 2.31 2.16 2.11 1.99 1.92 2.02 2.03 1.84 1.83 1.85 2.24 2.11 1.85 1.72 2.27 2.09 1.94 1.54 1.27 1.26 1.15 0.95 0.94 0.90 0.99 0.92 1.11 1.21
0.22 0.30 0.14 0.33 0.17 0.33 0.33 0.43 0.36 0.38 0.27 0.21 0.18 0.14 0.10 0.14 0.07 0.24 0.45 0.20 0.80 0.82 0.80 0.71 1.20 0.39 0.63 0.34 0.89 0.90 0.55 0.56 0.62 1.28 1.77 0.85 1.10 0.62 0.62 1.07 1.51 1.28 1.28 1.62 1.34 0.84 0.93 1.07 1.60 1.58 2.16 1.96 2.42 1.85 1.99 1.45 2.26 1.97 2.51 2.17 1.39 1.67 1.64 1.96 2.06 1.67 1.61 1.73 1.71 1.42 1.76 1.72 1.57 1.56 1.81 1.66 1.75 1.67 1.66 1.80 2.32 1.96 1.81 1.66 2.02 2.20 1.96 1.83 1.70 1.32 1.30 1.10 1.11 0.93 1.15 0.93 1.02
0.23 0.09 0.23 0.28 0.13 0.18 0.36 0.15 0.60 0.33 0.19 0.19 0.30 0.16 0.09 0.16 0.16 0.08 0.39 0.56 0.93 0.90 0.74 0.75 0.93 0.82 0.80 0.42 0.96 0.93 1.81 1.78 1.33 1.20 1.88 1.53 1.78 1.37 0.84 0.77 1.39 1.55 1.32 1.64 1.84 1.57 1.48 1.21 1.18 1.31 1.49 2.04 2.26 2.61 2.91 2.39 2.03 1.88 2.24 2.53 1.70 1.73 1.72 1.92 1.44 1.44 1.24 1.34 1.78 1.92 1.58 1.54 1.61 1.38 1.59 1.57 1.65 1.74 1.82 1.86 1.87 1.62 1.51 1.80 1.70 2.09 1.94 2.36 2.27 1.78 1.77 1.55 1.56 1.61 1.40 0.92 1.02
0.14 0.22 0.20 0.26 0.37 0.12 0.38 0.39 0.32 0.46 0.20 0.22 0.03 0.33 0.33 0.26 0.05 0.05 0.50 0.46 0.16 0.28 0.78 0.43 0.43 1.20 0.93 0.47 0.94 1.11 0.96 1.58 1.19 1.02 1.44 1.85 1.67 2.29 1.74 1.37 0.82 1.33 1.59 0.91 1.35 1.64 1.66 1.15 1.01 0.99 1.10 1.35 1.70 1.76 1.49 1.55 1.89 2.08 1.76 2.00 1.77 1.60 1.68 1.88 2.02 1.91 2.44 2.24 2.43 1.78 1.55 1.40 1.40 1.61 1.39 1.41 1.66 1.67 1.41 1.49 1.80 1.71 1.80 1.66 1.69 1.63 1.99 1.98 1.86 2.13 1.78 1.67 1.52 1.16 1.23 1.48 1.36
0.03 0.06 0.07 0.17 0.39 0.36 0.28 0.34 0.56 0.27 0.26 0.02 0.11 0.06 0.01 0.08 0.11 0.06 0.04 0.27 0.06 0.26 0.16 0.47 0.30 0.29 1.04 0.73 0.55 0.50 0.60 1.26 1.00 0.84 0.90 1.29 1.60 1.88 1.85 1.51 1.23 0.94 1.08 1.21 1.02 0.84 1.64 1.66 1.60 1.31 0.98 0.87 1.15 1.52 1.61 1.63 1.39 1.28 1.81 1.66 1.96 2.47 2.38 2.48 2.83 3.15 2.84 1.86 1.51 1.39 1.35 1.17 1.11 0.94 1.05 1.10 1.12 1.03 0.82 1.53 1.04 1.29 1.29 1.82 1.70 1.57 1.42 1.46 1.59 1.82 1.66 2.21 2.01 1.43 1.45 0.90 1.41
0.00 0.00 0.02 0.21 0.12 0.15 0.48 0.26 0.46 0.20 0.28 0.04 0.04 0.01 0.03 0.01 0.00 0.05 0.03 0.03 0.02 0.02 0.46 0.38 0.16 0.37 0.42 0.71 0.68 0.68 0.54 0.54 1.08 1.12 0.93 0.92 0.98 0.90 1.28 1.33 1.45 1.16 1.11 0.97 0.83 0.59 0.54 0.90 1.36 1.30 1.23 1.27 0.97 1.07 1.34 1.64 2.20 2.42 2.59 3.34 3.14 2.94 2.77 2.35 3.17 3.46 3.54 3.52 2.84 1.64 1.15 1.06 0.78 0.91 0.99 1.17 0.92 0.91 0.70 0.86 0.88 1.28 1.20 1.16 1.12 1.75 1.63 1.74 1.72 1.69 1.69 1.99 2.22 2.08 1.47 1.91 1.32
0.00 0.00 0.12 0.04 0.15 0.05 0.66 0.35 0.35 0.37 0.15 0.03 0.02 0.04 0.09 0.05 0.00 0.00 0.00 0.00 0.09 0.01 0.00 0.01 0.53 0.33 0.21 0.51 0.71 0.51 0.52 0.65 0.63 1.09 1.10 0.92 0.75 0.67 0.73 0.95 1.07 1.16 0.81 0.74 0.68 0.81 0.61 0.49 0.49 0.91 1.08 1.13 1.45 1.29 1.61 1.59 2.02 1.56 1.87 1.95 2.38 3.43 3.07 3.59 3.19 3.12 2.91 2.53 2.01 1.61 1.64 1.07 1.01 0.96 0.80 0.97 1.00 0.77 0.65 0.64 0.68 1.00 1.01 1.07 1.12 1.02 1.38 1.52 1.72 1.75 1.54 1.59 2.60 2.00 1.72 0.90 0.83
0.01 0.06 0.02 0.05 0.14 0.06 0.15 0.22 0.59 0.15 0.24 0.40 0.11 0.08 0.06 0.25 0.00 0.01 0.01 0.03 0.01 0.03 0.26 0.02 0.02 0.40 0.61 0.41 0.33 0.69 0.58 0.49 0.63 0.53 0.72 0.93 0.96 0.67 0.53 0.52 0.53 0.72 0.92 1.20 0.97 0.97 0.95 0.69 0.60 0.42 0.41 0.78 0.78 0.89 1.11 1.03 1.18 1.91 1.37 1.24 1.82 1.87 2.17 2.84 3.69 3.47 2.81 2.78 2.65 2.52 2.17 2.28 1.71 1.35 1.18 1.11 1.02 1.02 0.89 0.73 0.70 0.69 0.80 0.94 0.91 1.29 1.24 1.51 1.36 1.36 1.92 1.71 1.59 1.03 1.09 1.06 1.02
0.04 0.07 0.05 0.06 0.03 0.05 0.04 0.32 0.49 0.39 0.19 0.28 0.09 0.07 0.02 0.02 0.00 0.06 0.01 0.02 0.00 0.00 0.02 0.10 0.08 0.05 0.21 0.61 0.53 0.37 0.49 0.58 0.52 0.46 0.39 0.50 0.82 1.04 0.97 0.76 0.53 0.45 0.48 0.70 0.80 0.76 0.67 0.63 0.60 0.61 0.56 0.50 0.63 0.61 0.80 0.59 0.58 0.70 0.82 1.01 1.00 1.04 1.20 2.17 1.73 2.06 2.29 2.28 2.63 2.21 1.91 1.65 1.49 1.44 1.35 0.97 1.10 0.85 0.90 0.80 0.67 0.68 0.75 0.92 1.04 0.78 0.92 1.00 1.22 1.63 1.30 1.31 1.22 0.99 0.90 0.88 1.15
0.02 0.17 0.07 0.04 0.02 0.20 0.02 0.28 0.46 0.41 0.41 0.16 0.13 0.17 0.05 0.03 0.23 0.03 0.01 0.01 0.20 0.11 0.15 0.03 0.09 0.12 0.13 0.40 0.63 0.68 0.62 0.64 0.76 0.64 0.60 0.51 0.51 0.52 0.50 0.79 0.95 0.73 0.52 0.53 0.47 0.54 0.39 0.50 0.36 0.33 0.30 0.33 0.27 0.31 0.33 0.30 0.55 0.95 0.53 0.78 0.60 0.87 0.68 0.72 1.25 1.12 1.08 0.84 1.27 1.10 1.26 1.03 0.91 0.90 0.71 0.62 0.42 0.34 0.62 0.60 0.68 0.65 0.82 0.77 0.84 0.84 0.93 0.91 1.05 0.95 1.17 1.26 1.20 0.87 0.86 0.80 1.01
0.03 0.08 0.05 0.02 0.02 0.17 0.06 0.18 0.49 0.50 0.33 0.27 0.23 0.06 0.04 0.09 0.10 0.02 0.00 0.02 0.00 0.04 0.02 0.00 0.05 0.05 0.12 0.18 0.19 0.72 0.75 0.69 0.85 0.94 0.83 0.58 0.53 0.45 0.46 0.37 0.37 0.43 0.47 0.41 0.24 0.23 0.23 0.20 0.24 0.22 0.25 0.23 0.27 0.56 0.34 0.26 0.15 0.20 0.23 0.34 0.57 0.45 0.56 0.52 0.82 1.32 0.80 0.77 0.52 0.84 0.70 0.73 0.84 0.54 0.37 0.68 0.75 0.73 0.73 0.55 0.68 0.54 0.59 0.70 0.68 0.91 0.91 1.33 1.16 1.11 1.04 1.12 0.96 1.05 0.97 0.96 0.89
0.02 0.02 0.01 0.01 0.01 0.05 0.14 0.07 0.48 0.55 0.46 0.42 0.28 0.23 0.09 0.04 0.05 0.06 0.04 0.07 0.02 0.09 0.08 0.20 0.09 0.00 0.04 0.10 0.18 0.29 0.33 0.52 0.49 0.57 0.67 0.80 0.60 0.41 0.32 0.24 0.22 0.16 0.16 0.21 0.15 0.10 0.08 0.07 0.05 0.10 0.13 0.10 0.12 0.19 0.29 0.27 0.55 0.31 0.46 0.86 0.33 0.52 0.82 0.72 0.82 1.24 1.53 1.11 1.14 0.83 0.61 1.31 1.03 0.78 0.79 0.98 0.35 0.58 0.39 0.42 0.60 1.01 0.81 0.55 0.53 0.54 0.55 0.72 0.78 0.78 0.93 0.68 0.80 1.01 0.87 0.94 1.13
0.17 0.01 0.01 0.01 0.01 0.06 0.05 0.15 0.20 0.75 0.60 0.29 0.15 0.13 0.04 0.07 0.15 0.05 0.05 0.01 0.04 0.07 0.12 0.15 0.23 0.13 0.06 0.11 0.11 0.16 0.20 0.23 0.41 0.45 0.33 0.40 0.52 0.47 0.32 0.21 0.12 0.08 0.06 0.06 0.08 0.05 0.05 0.07 0.04 0.03 0.08 0.11 0.17 0.12 0.19 0.34 0.17 0.19 0.27 0.25 0.34 0.52 0.53 0.65 0.91 1.08 1.52 1.27 1.15 1.51 1.53 1.17 1.15 1.32 1.02 0.79 0.68 0.56 0.58 0.95 0.60 0.54 0.73 0.67 0.65 0.64 0.63 0.61 0.69 0.62 0.62 0.75 0.64 0.76 0.77 0.84 0.77
0.14 0.06 0.01 0.02 0.04 0.04 0.05 0.06 0.05 0.30 0.60 0.37 0.20 0.11 0.11 0.18 0.16 0.11 0.27 0.00 0.06 0.07 0.09 0.12 0.06 0.03 0.13 0.06 0.07 0.09 0.18 0.21 0.19 0.33 0.41 0.36 0.43 0.49 0.37 0.29 0.25 0.15 0.06 0.07 0.08 0.08 0.05 0.02 0.03 0.13 0.06 0.09 0.14 0.19 0.20 0.18 0.24 0.52 0.30 0.54 0.21 0.26 0.36 0.58 0.48 0.84 0.59 0.65 0.74 1.13 0.85 1.81 1.69 1.36 0.86 0.63 0.46 0.71 0.95 0.69 0.76 0.45 0.26 0.47 1.19 1.36 0.62 0.76 1.04 0.61 0.74 1.31 0.79 0.70 0.84 0.87 1.01
0.03 0.03 0.04 0.02 0.03 0.02 0.08 0.06 0.08 0.22 0.52 0.52 0.37 0.20 0.08 0.23 0.15 0.06 0.07 0.09 0.10 0.05 0.03 0.03 0.05 0.04 0.03 0.06 0.03 0.02 0.02 0.04 0.10 0.18 0.14 0.18 0.27 0.41 0.32 0.24 0.21 0.16 0.13 0.07 0.03 0.07 0.06 0.02 0.01 0.09 0.16 0.14 0.15 0.37 0.43 0.45 0.23 0.19 0.12 0.22 0.33 0.64 0.63 0.51 0.52 0.72 0.87 1.04 0.95 1.13 1.16 1.29 1.35 1.07 0.90 1.08 1.79 1.15 0.78 0.60 0.58 0.78 1.33 0.71 0.50 0.60 0.86 0.65 0.77 0.83 0.82 0.77 0.90 0.77 1.05 0.81 0.71
0.01 0.08 0.12 0.22 0.14 0.11 0.10 0.19 0.09 0.10 0.24 0.50 0.39 0.11 0.07 0.05 0.09 0.09 0.18 0.18 0.18 0.00 0.00 0.00 0.02 0.02 0.03 0.03 0.00 0.01 0.00 0.00 0.02 0.01 0.02 0.05 0.08 0.09 0.10 0.11 0.10 0.12 0.06 0.06 0.04 0.02 0.02 0.02 0.01 0.03 0.03 0.10 0.19 0.24 0.31 0.36 0.29 0.42 0.56 0.50 0.83 0.60 0.46 0.46 0.44 1.07 1.46 1.22 1.03 1.30 1.15 1.39 1.44 1.27 1.47 1.10 0.72 1.00 0.96 1.56 1.57 0.87 0.72 0.70 1.06 0.79 0.74 0.60 0.64 0.64 0.83 0.77 0.55 0.48 0.46 0.57 0.95
0.00 0.00 0.00 0.00 0.00 0.00 0.00 0.03 0.04 0.01 0.00 0.03 0.11 0.12 0.06 0.03 0.02 0.06 0.03 0.05 0.14 0.15 0.01 0.00 0.00 0.01 0.00 0.01 0.03 0.01 0.00 0.00 0.00 0.00 0.00 0.01 0.01 0.01 0.01 0.02 0.02 0.01 0.02 0.02 0.01 0.01 0.01 0.03 0.01 0.02 0.04 0.07 0.13 0.10 0.13 0.28 0.34 0.42 0.54 0.46 0.51 0.49 0.67 0.79 1.25 0.82 0.76 1.01 0.98 0.67 0.74 1.22 1.86 1.87 1.58 1.27 1.17 1.15 1.16 0.97 1.34 1.35 1.11 0.92 0.89 1.02 1.13 1.36 0.94 1.10 1.06 1.10 0.77 0.98 0.77 0.72 0.58
0.00 0.00 0.00 0.00 0.00 0.00 0.00 0.01 0.03 0.00 0.00 0.00 0.01 0.02 0.04 0.08 0.01 0.02 0.02 0.02 0.04 0.17 0.30 0.05 0.01 0.01 0.01 0.01 0.03 0.00 0.00 0.00 0.00 0.00 0.00 0.00 0.00 0.00 0.00 0.00 0.00 0.00 0.00 0.00 0.00 0.01 0.01 0.00 0.01 0.02 0.03 0.06 0.06 0.09 0.13 0.23 0.16 0.20 0.43 0.88 0.70 1.32 1.43 1.33 1.32 1.09 1.15 1.07 0.99 1.43 1.78 1.17 1.28 1.20 1.35 1.61 0.99 0.98 1.48 1.78 1.55 1.55 0.91 0.90 0.91 1.06 1.24 1.03 1.35 1.25 1.14 1.30 0.89 0.99 0.92 0.74 0.70
0.00 0.00 0.00 0.00 0.00 0.01 0.04 0.03 0.00 0.00 0.00 0.00 0.00 0.00 0.00 0.00 0.00 0.00 0.00 0.00 0.02 0.05 0.05 0.02 0.02 0.01 0.00 0.00 0.00 0.00 0.00 0.00 0.00 0.00 0.00 0.00 0.00 0.00 0.00 0.00 0.00 0.00 0.00 0.00 0.00 0.00 0.01 0.00 0.02 0.01 0.03 0.04 0.07 0.13 0.22 0.21 0.31 0.34 0.36 0.40 0.50 0.45 0.47 0.71 1.19 1.24 1.11 1.34 1.36 1.40 1.52 1.19 1.05 1.04 0.97 1.52 1.40 1.46 1.35 1.29 1.79 1.91 1.62 1.48 1.11 1.12 1.13 1.18 1.22 1.27 1.14 1.11 1.27 1.46 1.28 1.48 1.27
0.00 0.00 0.01 0.00 0.04 0.02 0.00 0.00 0.00 0.00 0.00 0.00 0.00 0.02 0.01 0.00 0.00 0.00 0.00 0.00 0.00 0.00 0.00 0.01 0.01 0.01 0.00 0.00 0.00 0.00 0.00 0.00 0.00 0.01 0.00 0.00 0.00 0.00 0.00 0.00 0.00 0.00 0.00 0.00 0.00 0.00 0.00 0.00 0.00 0.01 0.01 0.03 0.15 0.20 0.32 0.27 0.39 0.57 0.60 0.43 0.79 0.73 1.00 0.74 0.58 0.76 1.03 1.10 1.76 1.24 1.21 1.29 1.23 1.44 1.68 1.29 1.24 1.33 1.15 1.20 1.06 1.06 1.21 1.29 1.58 1.52 1.18 1.23 1.03 1.03 1.12 1.04 1.15 0.95 0.81 0.88 0.82
0.00 0.00 0.00 0.02 0.01 0.01 0.00 0.00 0.00 0.00 0.00 0.00 0.00 0.07 0.01 0.00 0.00 0.00 0.00 0.00 0.00 0.00 0.00 0.00 0.00 0.00 0.01 0.03 0.00 0.00 0.00 0.00 0.00 0.00 0.00 0.00 0.00 0.00 0.00 0.00 0.00 0.00 0.00 0.00 0.00 0.00 0.00 0.00 0.00 0.01 0.00 0.01 0.09 0.19 0.20 0.27 0.39 0.60 0.94 0.85 0.77 0.61 1.03 1.03 0.94 1.56 0.95 1.11 1.32 0.81 1.17 1.58 1.49 1.42 1.45 1.07 1.11 0.73 0.68 0.69 0.80 0.71 0.58 0.65 0.74 0.91 1.01 1.23 1.48 1.20 1.15 1.12 1.15 0.99 1.02 1.05 1.05
0.00 0.00 0.01 0.02 0.03 0.00 0.00 0.00 0.00 0.00 0.00 0.00 0.00 0.00 0.02 0.00 0.00 0.00 0.00 0.00 0.00 0.00 0.00 0.00 0.00 0.00 0.00 0.00 0.00 0.00 0.00 0.00 0.00 0.00 0.00 0.00 0.00 0.00 0.00 0.00 0.00 0.00 0.00 0.00 0.00 0.00 0.00 0.00 0.00 0.00 0.01 0.05 0.02 0.14 0.27 0.34 0.79 1.34 1.56 1.29 1.24 1.02 1.17 0.86 0.64 0.76 1.23 1.25 1.45 1.59 1.61 1.36 1.32 1.20 0.92 0.79 0.68 0.61 0.65 0.56 0.43 0.56 0.71 0.95 0.97 1.14 1.16 1.02 1.09 1.18 1.22 1.56 1.45 1.17 1.13 1.02 0.97
0.00 0.00 0.00 0.00 0.00 0.01 0.00 0.00 0.00 0.05 0.00 0.00 0.00 0.03 0.00 0.00 0.00 0.00 0.00 0.00 0.00 0.00 0.00 0.00 0.00 0.00 0.00 0.00 0.00 0.00 0.00 0.00 0.00 0.00 0.00 0.00 0.00 0.00 0.00 0.00 0.00 0.00 0.00 0.00 0.00 0.00 0.03 0.03 0.03 0.11 0.13 0.43 0.34 0.17 0.22 0.17 0.12 0.24 0.43 0.80 0.72 1.07 0.93 0.68 0.85 0.90 0.82 0.90 1.17 1.10 1.22 1.18 1.21 1.60 1.47 1.38 1.68 1.02 0.85 1.07 1.10 1.25 1.33 1.49 1.52 1.24 1.02 0.71 0.65 0.73 0.73 0.88 1.28 1.40 1.14 1.12 0.99
0.01 0.01 0.00 0.00 0.01 0.01 0.01 0.00 0.00 0.00 0.00 0.00 0.00 0.00 0.00 0.00 0.00 0.00 0.00 0.00 0.00 0.00 0.00 0.00 0.00 0.00 0.00 0.00 0.00 0.00 0.00 0.00 0.00 0.00 0.00 0.00 0.00 0.00 0.00 0.00 0.00 0.00 0.00 0.00 0.00 0.00 0.00 0.00 0.01 0.01 0.01 0.01 0.02 0.03 0.06 0.10 0.18 0.19 0.29 0.30 0.51 1.03 1.07 0.79 0.66 0.56 0.67 0.66 0.81 0.83 0.82 1.22 1.49 2.01 1.95 1.52 1.48 1.91 1.87 1.55 1.71 1.89 1.46 1.58 1.59 1.85 1.65 1.93 1.89 1.43 1.23 1.08 0.93 1.04 1.01 1.08 0.99
0.02 0.03 0.04 0.03 0.01 0.00 0.00 0.00 0.04 0.00 0.00 0.00 0.00 0.00 0.00 0.00 0.00 0.00 0.00 0.00 0.00 0.00 0.00 0.00 0.00 0.00 0.00 0.00 0.00 0.00 0.00 0.00 0.00 0.00 0.00 0.00 0.00 0.00 0.00 0.00 0.00 0.00 0.00 0.00 0.00 0.00 0.00 0.00 0.01 0.01 0.01 0.02 0.02 0.05 0.06 0.06 0.21 0.19 0.20 0.18 0.17 0.15 0.80 0.56 0.64 0.82 1.12 0.71 0.95 1.32 1.02 0.97 0.84 1.17 1.24 1.55 1.04 0.84 0.76 1.13 1.21 1.78 1.52 1.19 0.97 1.15 1.28 1.62 1.49 2.09 1.63 1.57 1.26 1.44 0.97 0.90 1.02
0.03 0.02 0.02 0.01 0.00 0.00 0.00 0.00 0.00 0.00 0.00 0.00 0.00 0.00 0.00 0.00 0.00 0.00 0.00 0.00 0.00 0.00 0.00 0.00 0.00 0.00 0.00 0.00 0.00 0.00 0.00 0.00 0.10 0.00 0.00 0.00 0.00 0.00 0.00 0.00 0.00 0.00 0.00 0.00 0.00 0.00 0.00 0.00 0.01 0.01 0.02 0.03 0.03 0.03 0.04 0.07 0.07 0.11 0.10 0.13 0.17 0.19 0.27 0.38 0.59 0.37 0.46 0.52 0.97 0.92 0.93 1.02 1.38 1.08 1.26 1.40 1.83 1.43 1.19 1.44 1.77 1.48 1.46 1.26 0.87 0.80 1.19 0.77 0.96 0.99 1.08 1.49 1.13 1.03 1.03 0.98 0.86
0.01 0.00 0.00 0.00 0.00 0.00 0.00 0.00 0.01 0.01 0.02 0.00 0.00 0.00 0.00 0.00 0.00 0.00 0.00 0.00 0.00 0.00 0.00 0.00 0.00 0.00 0.00 0.00 0.00 0.00 0.00 0.00 0.02 0.01 0.00 0.00 0.00 0.00 0.00 0.00 0.00 0.00 0.00 0.00 0.00 0.00 0.00 0.00 0.00 0.01 0.02 0.03 0.03 0.05 0.03 0.02 0.06 0.08 0.07 0.07 0.08 0.18 0.10 0.20 0.20 0.14 0.20 0.33 0.56 0.43 0.58 0.79 1.03 0.85 0.96 1.34 1.04 1.20 1.38 1.32 1.40 1.21 1.23 1.49 1.63 1.74 1.82 1.58 1.32 1.65 1.39 1.31 1.10 0.93 0.91 1.01 1.09
0.01 0.01 0.01 0.01 0.02 0.01 0.02 0.01 0.05 0.19 0.13 0.02 0.01 0.02 0.00 0.00 0.00 0.00 0.00 0.00 0.00 0.00 0.00 0.00 0.00 0.00 0.00 0.00 0.00 0.00 0.00 0.00 0.00 0.01 0.00 0.00 0.00 0.00 0.00 0.00 0.00 0.00 0.00 0.00 0.00 0.00 0.00 0.00 0.00 0.01 0.03 0.05 0.07 0.07 0.06 0.05 0.05 0.10 0.15 0.08 0.11 0.16 0.19 0.24 0.20 0.26 0.34 0.58 0.40 0.52 0.42 0.45 0.53 0.56 0.79 0.83 0.99 1.17 1.40 1.20 1.43 1.38 1.35 1.35 1.32 1.11 1.15 1.18 1.43 1.54 1.48 1.38 1.23 1.17 0.98 0.80 0.93
0.01 0.02 0.02 0.02 0.01 0.00 0.00 0.00 0.00 0.03 0.01 0.02 0.01 0.00 0.00 0.00 0.00 0.00 0.00 0.00 0.00 0.00 0.00 0.00 0.00 0.00 0.00 0.00 0.00 0.00 0.00 0.01 0.01 0.01 0.01 0.01 0.01 0.00 0.00 0.00 0.00 0.00 0.00 0.00 0.00 0.00 0.00 0.00 0.00 0.00 0.01 0.03 0.08 0.07 0.09 0.10 0.08 0.05 0.07 0.15 0.15 0.19 0.38 0.22 0.47 0.15 0.28 0.25 0.39 0.59 0.70 0.49 0.61 0.72 0.77 0.88 0.91 0.88 1.15 0.95 0.95 1.35 1.49 1.20 1.07 0.95 1.04 1.16 1.29 1.35 1.28 1.28 1.21 1.23 1.27 1.18 1.06
0.00 0.00 0.01 0.01 0.00 0.01 0.01 0.00 0.01 0.00 0.00 0.00 0.00 0.00 0.00 0.00 0.00 0.00 0.00 0.00 0.00 0.00 0.00 0.00 0.00 0.00 0.00 0.00 0.00 0.01 0.01 0.01 0.02 0.01 0.01 0.01 0.01 0.00 0.00 0.00 0.00 0.00 0.00 0.00 0.00 0.00 0.00 0.00 0.00 0.01 0.01 0.01 0.03 0.07 0.06 0.07 0.06 0.05 0.04 0.05 0.08 0.13 0.11 0.14 0.27 0.13 0.21 0.34 0.27 0.32 0.36 0.42 0.48 0.56 0.54 0.55 0.57 0.62 0.77 0.90 1.00 1.00 0.94 0.99 1.13 1.44 1.24 1.04 1.21 1.16 1.06 1.12 1.20 1.35 1.19 1.15 1.29
0.00 0.00 0.00 0.00 0.00 0.03 0.01 0.00 0.00 0.00 0.00 0.00 0.00 0.01 0.00 0.00 0.00 0.02 0.02 0.00 0.00 0.00 0.00 0.00 0.00 0.00 0.00 0.00 0.00 0.01 0.01 0.02 0.02 0.01 0.01 0.01 0.01 0.01 0.00 0.00 0.00 0.00 0.00 0.00 0.00 0.00 0.00 0.00 0.00 0.01 0.02 0.02 0.02 0.05 0.09 0.11 0.12 0.14 0.16 0.15 0.13 0.09 0.10 0.10 0.13 0.16 0.16 0.16 0.19 0.26 0.35 0.46 0.62 0.69 0.63 0.67 0.67 0.74 0.87 0.76 0.93 0.99 0.89 1.07 0.93 0.91 0.80 0.89 1.08 1.10 1.04 1.14 1.18 1.24 1.18 1.08 1.01
0.00 0.00 0.00 0.01 0.00 0.00 0.00 0.00 0.01 0.01 0.00 0.01 0.02 0.03 0.00 0.00 0.01 0.03 0.00 0.00 0.00 0.00 0.00 0.00 0.10 0.00 0.00 0.00 0.01 0.01 0.01 0.01 0.01 0.01 0.01 0.01 0.01 0.01 0.00 0.00 0.00 0.00 0.00 0.00 0.00 0.00 0.00 0.00 0.00 0.01 0.00 0.02 0.03 0.03 0.03 0.07 0.12 0.17 0.18 0.14 0.10 0.09 0.09 0.09 0.11 0.25 0.19 0.16 0.32 0.25 0.24 0.36 0.56 0.78 0.93 0.73 0.63 0.82 0.61 0.61 0.74 0.86 0.85 0.87 1.17 1.20 1.15 1.29 0.92 0.85 0.98 1.10 1.34 1.20 1.25 1.04 1.06
0.00 0.00 0.00 0.01 0.01 0.00 0.00 0.00 0.00 0.01 0.01 0.00 0.00 0.08 0.01 0.00 0.00 0.00 0.01 0.00 0.00 0.00 0.00 0.01 0.09 0.04 0.00 0.01 0.01 0.01 0.01 0.01 0.01 0.01 0.01 0.01 0.01 0.00 0.00 0.00 0.00 0.00 0.00 0.00 0.00 0.00 0.00 0.00 0.00 0.00 0.00 0.00 0.00 0.02 0.03 0.05 0.07 0.11 0.16 0.20 0.15 0.11 0.10 0.09 0.17 0.15 0.13 0.21 0.24 0.22 0.18 0.25 0.33 0.34 0.38 0.36 0.48 0.60 0.75 0.64 0.61 0.63 0.69 0.77 0.79 0.83 0.80 0.84 1.03 1.10 1.17 1.07 0.99 1.02 1.21 1.32 1.22
0.00 0.00 0.00 0.00 0.00 0.00 0.00 0.00 0.01 0.01 0.00 0.00 0.00 0.00 0.05 0.01 0.00 0.00 0.00 0.02 0.00 0.01 0.02 0.01 0.01 0.03 0.03 0.01 0.00 0.00 0.01 0.01 0.01 0.01 0.01 0.01 0.01 0.00 0.00 0.00 0.00 0.00 0.00 0.00 0.00 0.00 0.00 0.00 0.00 0.00 0.00 0.00 0.00 0.00 0.01 0.03 0.07 0.08 0.10 0.13 0.15 0.15 0.16 0.16 0.16 0.16 0.13 0.15 0.16 0.22 0.15 0.16 0.18 0.17 0.23 0.23 0.22 0.24 0.33 0.57 0.60 0.52 0.83 0.53 0.56 0.60 0.74 0.72 0.75 0.83 0.83 0.94 1.12 1.09 1.25 1.21 1.12
0.00 0.00 0.00 0.00 0.00 0.00 0.00 0.00 0.01 0.02 0.01 0.01 0.00 0.02 0.04 0.02 0.00 0.00 0.00 0.01 0.01 0.02 0.02 0.12 0.01 0.04 0.02 0.01 0.01 0.01 0.01 0.01 0.01 0.01 0.01 0.00 0.00 0.00 0.00 0.00 0.00 0.00 0.00 0.01 0.01 0.00 0.00 0.00 0.01 0.01 0.00 0.00 0.00 0.00 0.01 0.02 0.04 0.05 0.08 0.11 0.15 0.16 0.18 0.15 0.11 0.10 0.08 0.08 0.10 0.11 0.13 0.13 0.16 0.15 0.13 0.12 0.12 0.10 0.12 0.20 0.25 0.33 0.42 0.71 0.68 0.58 0.52 0.57 0.62 0.66 0.79 0.82 0.79 0.87 0.84 1.03 1.09
0.00 0.00 0.00 0.00 0.00 0.00 0.00 0.00 0.02 0.02 0.02 0.01 0.00 0.03 0.09 0.01 0.00 0.00 0.03 0.01 0.02 0.02 0.05 0.03 0.02 0.02 0.02 0.02 0.01 0.01 0.01 0.01 0.01 0.01 0.00 0.00 0.00 0.00 0.00 0.00 0.01 0.01 0.01 0.01 0.01 0.01 0.01 0.01 0.01 0.00 0.00 0.00 0.00 0.01 0.01 0.01 0.03 0.04 0.05 0.09 0.10 0.11 0.11 0.11 0.11 0.14 0.13 0.11 0.10 0.09 0.08 0.08 0.09 0.09 0.12 0.10 0.10 0.17 0.19 0.10 0.12 0.09 0.13 0.39 0.87 0.59 0.63 0.90 0.63 0.56 0.58 0.59 0.71 0.72 0.83 0.82 1.02
0.00 0.00 0.00 0.00 0.00 0.00 0.00 0.01 0.00 0.01 0.03 0.01 0.00 0.01 0.02 0.09 0.01 0.01 0.02 0.01 0.01 0.01 0.03 0.04 0.02 0.01 0.02 0.01 0.00 0.00 0.00 0.00 0.00 0.00 0.00 0.00 0.00 0.00 0.01 0.02 0.03 0.03 0.02 0.02 0.01 0.01 0.01 0.01 0.01 0.01 0.00 0.00 0.00 0.01 0.01 0.04 0.03 0.02 0.04 0.08 0.09 0.09 0.11 0.11 0.12 0.11 0.10 0.10 0.16 0.12 0.10 0.10 0.11 0.14 0.16 0.22 0.15 0.15 0.17 0.15 0.51 0.23 0.31 0.21 0.26 0.23 0.23 0.39 0.47 0.63 0.68 0.69 0.79 0.74 0.75 0.76 0.75
0.00 0.00 0.00 0.00 0.01 0.00 0.01 0.00 0.00 0.04 0.04 0.00 0.01 0.00 0.01 0.18 0.02 0.00 0.01 0.01 0.01 0.05 0.01 0.02 0.02 0.00 0.01 0.01 0.00 0.00 0.00 0.00 0.00 0.00 0.00 0.00 0.01 0.02 0.03 0.04 0.04 0.03 0.03 0.02 0.02 0.01 0.01 0.01 0.01 0.01 0.01 0.01 0.01 0.01 0.01 0.02 0.02 0.03 0.05 0.06 0.05 0.06 0.06 0.06 0.06 0.05 0.07 0.07 0.06 0.08 0.11 0.14 0.18 0.31 0.23 0.24 0.34 0.26 0.17 0.19 0.30 0.29 0.25 0.23 0.30 0.32 0.51 0.36 0.23 0.32 0.36 0.42 0.49 0.66 0.64 0.67 0.80
0.00 0.00 0.00 0.02 0.07 0.06 0.07 0.02 0.05 0.03 0.01 0.01 0.00 0.00 0.00 0.00 0.00 0.01 0.00 0.00 0.05 0.02 0.01 0.02 0.01 0.01 0.02 0.01 0.00 0.00 0.00 0.00 0.00 0.00 0.01 0.02 0.04 0.05 0.05 0.05 0.04 0.04 0.03 0.03 0.02 0.02 0.01 0.01 0.01 0.01 0.01 0.02 0.01 0.02 0.02 0.03 0.04 0.03 0.03 0.03 0.04 0.04 0.04 0.04 0.04 0.03 0.03 0.03 0.04 0.06 0.08 0.12 0.13 0.15 0.17 0.30 0.30 0.37 0.35 0.24 0.26 0.23 0.27 0.28 0.46 0.32 0.42 0.50 0.34 0.28 0.37 0.56 0.50 0.42 0.46 0.59 0.66
0.02 0.02 0.09 0.13 0.19 0.15 0.12 0.10 0.06 0.03 0.03 0.01 0.00 0.00 0.00 0.00 0.01 0.02 0.00 0.02 0.04 0.07 0.03 0.01 0.01 0.01 0.01 0.00 0.00 0.00 0.00 0.00 0.01 0.01 0.03 0.04 0.05 0.05 0.05 0.05 0.05 0.04 0.03 0.03 0.02 0.01 0.01 0.01 0.01 0.01 0.01 0.02 0.02 0.03 0.03 0.05 0.03 0.03 0.03 0.04 0.05 0.05 0.04 0.03 0.03 0.03 0.03 0.03 0.04 0.04 0.04 0.05 0.06 0.08 0.09 0.12 0.13 0.23 0.15 0.20 0.25 0.35 0.34 0.34 0.31 0.32 0.33 0.36 0.33 0.33 0.42 0.43 0.42 0.51 0.47 0.48 0.59
0.01 0.00 0.01 0.05 0.09 0.16 0.17 0.12 0.14 0.09 0.10 0.05 0.01 0.01 0.01 0.00 0.00 0.00 0.01 0.05 0.02 0.15 0.09 0.03 0.01 0.01 0.00 0.00 0.00 0.00 0.00 0.02 0.02 0.03 0.04 0.05 0.05 0.05 0.05 0.05 0.05 0.04 0.03 0.02 0.01 0.01 0.01 0.02 0.01 0.02 0.02 0.02 0.02 0.02 0.03 0.03 0.03 0.03 0.04 0.04 0.03 0.03 0.03 0.03 0.04 0.03 0.03 0.03 0.02 0.02 0.02 0.03 0.04 0.05 0.08 0.09 0.12 0.13 0.17 0.22 0.30 0.31 0.29 0.36 0.45 0.53 0.43 0.51 0.42 0.40 0.46 0.46 0.38 0.43 0.51 0.57 0.59
0.00 0.00 0.01 0.03 0.04 0.46 0.26 0.24 0.23 0.15 0.13 0.09 0.05 0.03 0.00 0.00 0.00 0.00 0.00 0.02 0.04 0.09 0.04 0.03 0.01 0.01 0.00 0.00 0.00 0.00 0.01 0.02 0.03 0.04 0.05 0.06 0.06 0.05 0.05 0.04 0.03 0.02 0.01 0.01 0.01 0.02 0.02 0.02 0.02 0.02 0.04 0.02 0.02 0.02 0.02 0.03 0.03 0.05 0.04 0.03 0.03 0.03 0.04 0.04 0.04 0.04 0.03 0.03 0.04 0.04 0.07 0.06 0.04 0.05 0.07 0.06 0.13 0.12 0.13 0.15 0.18 0.22 0.22 0.28 0.24 0.32 0.31 0.37 0.36 0.42 0.37 0.34 0.35 0.32 0.32 0.35 0.40
0.10 0.02 0.04 0.05 0.01 0.03 0.09 0.11 0.07 0.05 0.11 0.11 0.01 0.00 0.00 0.00 0.00 0.01 0.00 0.06 0.04 0.09 0.01 0.03 0.02 0.11 0.01 0.01 0.01 0.01 0.02 0.04 0.05 0.07 0.08 0.09 0.07 0.05 0.03 0.02 0.02 0.02 0.02 0.02 0.02 0.02 0.02 0.02 0.02 0.03 0.02 0.02 0.03 0.02 0.02 0.03 0.04 0.04 0.04 0.04 0.06 0.05 0.05 0.05 0.06 0.08 0.07 0.07 0.08 0.08 0.08 0.07 0.07 0.08 0.08 0.07 0.08 0.08 0.10 0.13 0.16 0.23 0.23 0.33 0.36 0.40 0.45 0.38 0.28 0.29 0.32 0.34 0.37 0.35 0.36 0.34 0.32
0.00 0.01 0.02 0.00 0.01 0.01 0.11 0.30 0.18 0.31 0.22 0.13 0.02 0.01 0.01 0.00 0.04 0.00 0.02 0.04 0.03 0.05 0.06 0.02 0.05 0.04 0.01 0.01 0.02 0.03 0.05 0.07 0.08 0.09 0.09 0.07 0.04 0.03 0.02 0.02 0.02 0.02 0.02 0.02 0.02 0.03 0.02 0.03 0.03 0.02 0.03 0.04 0.06 0.06 0.06 0.06 0.05 0.04 0.05 0.05 0.05 0.05 0.06 0.07 0.08 0.09 0.09 0.09 0.09 0.10 0.08 0.09 0.09 0.08 0.09 0.10 0.10 0.12 0.13 0.14 0.15 0.16 0.19 0.20 0.24 0.27 0.32 0.33 0.46 0.43 0.41 0.36 0.37 0.37 0.38 0.42 0.41
0.01 0.02 0.35 0.05 0.28 0.25 0.25 0.26 0.62 0.43 0.36 0.18 0.06 0.02 0.02 0.01 0.04 0.01 0.03 0.08 0.05 0.04 0.04 0.03 0.02 0.02 0.02 0.03 0.05 0.06 0.08 0.10 0.10 0.08 0.07 0.05 0.03 0.03 0.02 0.02 0.02 0.02 0.02 0.04 0.04 0.03 0.03 0.02 0.02 0.03 0.05 0.06 0.06 0.08 0.07 0.06 0.05 0.06 0.06 0.05 0.06 0.06 0.07 0.07 0.07 0.08 0.08 0.09 0.09 0.09 0.11 0.10 0.12 0.11 0.12 0.13 0.14 0.15 0.16 0.16 0.16 0.18 0.27 0.21 0.20 0.22 0.23 0.24 0.28 0.34 0.33 0.35 0.36 0.35 0.37 0.40 0.40
0.01 0.00 0.01 0.01 0.04 0.13 0.33 0.36 0.38 0.57 0.60 0.44 0.32 0.10 0.07 0.01 0.01 0.01 0.11 0.14 0.04 0.04 0.04 0.03 0.03 0.04 0.04 0.05 0.06 0.08 0.09 0.09 0.08 0.07 0.06 0.04 0.02 0.01 0.01 0.03 0.04 0.05 0.04 0.04 0.03 0.03 0.02 0.02 0.03 0.05 0.05 0.06 0.08 0.08 0.07 0.07 0.07 0.07 0.06 0.06 0.06 0.07 0.08 0.07 0.07 0.09 0.11 0.09 0.10 0.12 0.16 0.13 0.12 0.11 0.13 0.13 0.15 0.15 0.16 0.18 0.18 0.19 0.21 0.39 0.28 0.26 0.32 0.26 0.26 0.26 0.29 0.28 0.29 0.31 0.36 0.41 0.42
0.01 0.02 0.05 0.04 0.05 0.15 0.18 0.25 0.37 0.39 0.46 0.56 0.49 0.39 0.13 0.02 0.01 0.01 0.14 0.03 0.04 0.02 0.03 0.04 0.04 0.04 0.04 0.06 0.07 0.08 0.08 0.11 0.06 0.06 0.06 0.03 0.07 0.03 0.05 0.04 0.04 0.04 0.03 0.04 0.04 0.04 0.04 0.05 0.06 0.06 0.07 0.09 0.07 0.06 0.06 0.06 0.07 0.07 0.08 0.09 0.10 0.10 0.10 0.12 0.12 0.13 0.14 0.15 0.17 0.21 0.16 0.17 0.21 0.20 0.14 0.14 0.13 0.15 0.17 0.18 0.20 0.22 0.24 0.32 0.30 0.35 0.32 0.34 0.37 0.36 0.36 0.37 0.38 0.38 0.40 0.40 0.40
0.01 0.01 0.02 0.02 0.04 0.11 0.41 0.69 0.25 0.27 0.45 0.56 0.42 0.41 0.15 0.03 0.00 0.03 0.02 0.02 0.02 0.02 0.03 0.04 0.04 0.04 0.04 0.05 0.06 0.06 0.07 0.03 0.02 0.02 0.03 0.01 0.08 0.04 0.05 0.05 0.03 0.03 0.04 0.04 0.06 0.06 0.08 0.10 0.10 0.12 0.12 0.12 0.12 0.12 0.12 0.12 0.12 0.13 0.14 0.14 0.14 0.13 0.14 0.14 0.15 0.15 0.16 0.17 0.24 0.23 0.23 0.19 0.23 0.15 0.20 0.16 0.17 0.18 0.18 0.19 0.21 0.22 0.22 0.24 0.32 0.33 0.33 0.37 0.39 0.37 0.37 0.39 0.43 0.47 0.45 0.45 0.43